TimeCST,TemperatureF,Dew PointF,Humidity,Sea Level PressureIn,VisibilityMPH,Wind Direction,Wind SpeedMPH,Gust SpeedMPH,PrecipitationIn,Events,Conditions,WindDirDegrees,DateUTC
12:53 AM,24.1,14.0,65,30.21,10.0,NE,5.8,-,N/A,,Clear,50,2013-02-21 06:53:00
1:53 AM,24.1,14.0,65,30.20,10.0,NE,5.8,-,N/A,,Clear,50,2013-02-21 07:53:00
2:53 AM,23.0,14.0,68,30.20,10.0,NE,4.6,-,N/A,,Clear,50,2013-02-21 08:53:00
3:53 AM,23.0,15.1,72,30.20,10.0,NE,5.8,-,N/A,,Clear,40,2013-02-21 09:53:00
4:53 AM,21.9,14.0,72,30.21,10.0,ENE,5.8,-,N/A,,Clear,60,2013-02-21 10:53:00
5:53 AM,21.9,15.1,75,30.23,10.0,NE,5.8,-,N/A,,Clear,40,2013-02-21 11:53:00
7:53 AM,27.0,16.0,63,30.23,10.0,ENE,6.9,-,N/A,,Clear,60,2013-02-21 13:53:00
8:53 AM,34.0,15.1,46,30.21,10.0,East,8.1,-,N/A,,Clear,90,2013-02-21 14:53:00
9:53 AM,39.9,12.9,33,30.17,10.0,ESE,5.8,-,N/A,,Clear,110,2013-02-21 15:53:00
11:53 AM,48.0,10.9,22,30.13,10.0,Variable,5.8,-,N/A,,Clear,0,2013-02-21 17:53:00
12:53 PM,48.0,12.0,24,30.10,10.0,ENE,4.6,-,N/A,,Clear,70,2013-02-21 18:53:00
1:53 PM,50.0,12.0,22,30.06,10.0,Variable,6.9,-,N/A,,Clear,0,2013-02-21 19:53:00
2:53 PM,48.9,15.1,26,30.02,10.0,ESE,8.1,-,N/A,,Clear,110,2013-02-21 20:53:00
3:53 PM,46.9,15.1,28,29.99,10.0,ESE,5.8,-,N/A,,Clear,110,2013-02-21 21:53:00
4:53 PM,46.0,16.0,30,30.02,10.0,SE,4.6,-,N/A,,Overcast,140,2013-02-21 22:53:00
5:53 PM,41.0,30.0,65,30.08,10.0,Calm,Calm,-,0.01,Rain,Light Rain,0,2013-02-21 23:53:00
6:53 PM,39.0,30.9,73,30.04,10.0,East,4.6,-,0.04,Rain,Light Rain,90,2013-02-22 00:53:00
7:53 PM,37.9,33.1,83,30.03,5.0,SE,8.1,-,0.17,Rain,Rain,130,2013-02-22 01:53:00
8:53 PM,37.0,35.1,93,30.08,4.0,Calm,Calm,-,0.24,Rain,Light Rain,0,2013-02-22 02:53:00
9:53 PM,39.0,37.0,93,30.03,6.0,SE,8.1,-,0.11,Rain,Light Rain,130,2013-02-22 03:53:00
10:53 PM,44.1,39.9,85,29.96,10.0,SSE,16.1,28.8,0.04,,Mostly Cloudy,160,2013-02-22 04:53:00
11:53 PM,43.0,39.0,86,29.94,10.0,South,11.5,27.6,N/A,,Overcast,170,2013-02-22 05:53:00